Index of /20260420/WXO-DD/model_rdps/10km/06/042
Name Last modified Size Description
Parent Directory -
20260420T06Z_MSC_RDPS_AbsoluteVorticity_IsbL-0250_RLatLon0.09_PT042H.grib2 2026-04-20 08:50 612K
20260420T06Z_MSC_RDPS_AbsoluteVorticity_IsbL-0500_RLatLon0.09_PT042H.grib2 2026-04-20 08:50 575K
20260420T06Z_MSC_RDPS_AbsoluteVorticity_IsbL-0700_RLatLon0.09_PT042H.grib2 2026-04-20 08:50 629K
20260420T06Z_MSC_RDPS_AbsoluteVorticity_IsbL-0850_RLatLon0.09_PT042H.grib2 2026-04-20 08:50 789K
20260420T06Z_MSC_RDPS_AirTemp_AGL-120m_RLatLon0.09_PT042H.grib2 2026-04-20 08:50 377K
20260420T06Z_MSC_RDPS_AirTemp_AGL-2m_RLatLon0.09_PT042H.grib2 2026-04-20 08:50 632K
20260420T06Z_MSC_RDPS_AirTemp_AGL-40m_RLatLon0.09_PT042H.grib2 2026-04-20 08:50 388K
20260420T06Z_MSC_RDPS_AirTemp_AGL-80m_RLatLon0.09_PT042H.grib2 2026-04-20 08:50 381K
20260420T06Z_MSC_RDPS_AirTemp_IsbL-0001_RLatLon0.09_PT042H.grib2 2026-04-20 08:50 304K
20260420T06Z_MSC_RDPS_AirTemp_IsbL-0005_RLatLon0.09_PT042H.grib2 2026-04-20 08:50 334K
20260420T06Z_MSC_RDPS_AirTemp_IsbL-0010_RLatLon0.09_PT042H.grib2 2026-04-20 08:50 308K
20260420T06Z_MSC_RDPS_AirTemp_IsbL-0020_RLatLon0.09_PT042H.grib2 2026-04-20 08:50 328K
20260420T06Z_MSC_RDPS_AirTemp_IsbL-0030_RLatLon0.09_PT042H.grib2 2026-04-20 08:50 352K
20260420T06Z_MSC_RDPS_AirTemp_IsbL-0050_RLatLon0.09_PT042H.grib2 2026-04-20 08:50 332K
20260420T06Z_MSC_RDPS_AirTemp_IsbL-0100_RLatLon0.09_PT042H.grib2 2026-04-20 08:50 438K
20260420T06Z_MSC_RDPS_AirTemp_IsbL-0150_RLatLon0.09_PT042H.grib2 2026-04-20 08:50 434K
20260420T06Z_MSC_RDPS_AirTemp_IsbL-0175_RLatLon0.09_PT042H.grib2 2026-04-20 08:50 430K
20260420T06Z_MSC_RDPS_AirTemp_IsbL-0200_RLatLon0.09_PT042H.grib2 2026-04-20 08:50 431K
20260420T06Z_MSC_RDPS_AirTemp_IsbL-0225_RLatLon0.09_PT042H.grib2 2026-04-20 08:50 425K
20260420T06Z_MSC_RDPS_AirTemp_IsbL-0250_RLatLon0.09_PT042H.grib2 2026-04-20 08:50 424K
20260420T06Z_MSC_RDPS_AirTemp_IsbL-0275_RLatLon0.09_PT042H.grib2 2026-04-20 08:50 402K
20260420T06Z_MSC_RDPS_AirTemp_IsbL-0300_RLatLon0.09_PT042H.grib2 2026-04-20 08:50 408K
20260420T06Z_MSC_RDPS_AirTemp_IsbL-0350_RLatLon0.09_PT042H.grib2 2026-04-20 08:50 425K
20260420T06Z_MSC_RDPS_AirTemp_IsbL-0400_RLatLon0.09_PT042H.grib2 2026-04-20 08:50 394K
20260420T06Z_MSC_RDPS_AirTemp_IsbL-0450_RLatLon0.09_PT042H.grib2 2026-04-20 08:50 404K
20260420T06Z_MSC_RDPS_AirTemp_IsbL-0500_RLatLon0.09_PT042H.grib2 2026-04-20 08:50 420K
20260420T06Z_MSC_RDPS_AirTemp_IsbL-0550_RLatLon0.09_PT042H.grib2 2026-04-20 08:50 439K
20260420T06Z_MSC_RDPS_AirTemp_IsbL-0600_RLatLon0.09_PT042H.grib2 2026-04-20 08:50 457K
20260420T06Z_MSC_RDPS_AirTemp_IsbL-0650_RLatLon0.09_PT042H.grib2 2026-04-20 08:50 469K
20260420T06Z_MSC_RDPS_AirTemp_IsbL-0700_RLatLon0.09_PT042H.grib2 2026-04-20 08:50 492K
20260420T06Z_MSC_RDPS_AirTemp_IsbL-0750_RLatLon0.09_PT042H.grib2 2026-04-20 08:50 530K
20260420T06Z_MSC_RDPS_AirTemp_IsbL-0800_RLatLon0.09_PT042H.grib2 2026-04-20 08:50 461K
20260420T06Z_MSC_RDPS_AirTemp_IsbL-0850_RLatLon0.09_PT042H.grib2 2026-04-20 08:50 504K
20260420T06Z_MSC_RDPS_AirTemp_IsbL-0875_RLatLon0.09_PT042H.grib2 2026-04-20 08:50 512K
20260420T06Z_MSC_RDPS_AirTemp_IsbL-0900_RLatLon0.09_PT042H.grib2 2026-04-20 08:50 516K
20260420T06Z_MSC_RDPS_AirTemp_IsbL-0925_RLatLon0.09_PT042H.grib2 2026-04-20 08:50 516K
20260420T06Z_MSC_RDPS_AirTemp_IsbL-0950_RLatLon0.09_PT042H.grib2 2026-04-20 08:50 521K
20260420T06Z_MSC_RDPS_AirTemp_IsbL-0970_RLatLon0.09_PT042H.grib2 2026-04-20 08:50 525K
20260420T06Z_MSC_RDPS_AirTemp_IsbL-0985_RLatLon0.09_PT042H.grib2 2026-04-20 08:50 519K
20260420T06Z_MSC_RDPS_AirTemp_IsbL-1000_RLatLon0.09_PT042H.grib2 2026-04-20 08:50 502K
20260420T06Z_MSC_RDPS_AirTemp_IsbL-1015_RLatLon0.09_PT042H.grib2 2026-04-20 08:50 496K
20260420T06Z_MSC_RDPS_Albedo_Sfc_RLatLon0.09_PT042H.grib2 2026-04-20 08:50 161K
20260420T06Z_MSC_RDPS_CAPE_Sfc_RLatLon0.09_PT042H.grib2 2026-04-20 08:50 1.7M
20260420T06Z_MSC_RDPS_CIN_Sfc_RLatLon0.09_PT042H.grib2 2026-04-20 08:50 1.2M
20260420T06Z_MSC_RDPS_CloudWater_EAtm_RLatLon0.09_PT042H.grib2 2026-04-20 08:50 218K
20260420T06Z_MSC_RDPS_ConvectivePrecip-Accum_Sfc_RLatLon0.09_PT042H.grib2 2026-04-20 08:50 1.1M
20260420T06Z_MSC_RDPS_DewPointDepression_AGL-2m_RLatLon0.09_PT042H.grib2 2026-04-20 08:50 415K
20260420T06Z_MSC_RDPS_DewPointDepression_IsbL-0001_RLatLon0.09_PT042H.grib2 2026-04-20 08:50 193
20260420T06Z_MSC_RDPS_DewPointDepression_IsbL-0005_RLatLon0.09_PT042H.grib2 2026-04-20 08:50 193
20260420T06Z_MSC_RDPS_DewPointDepression_IsbL-0010_RLatLon0.09_PT042H.grib2 2026-04-20 08:50 193
20260420T06Z_MSC_RDPS_DewPointDepression_IsbL-0020_RLatLon0.09_PT042H.grib2 2026-04-20 08:50 193
20260420T06Z_MSC_RDPS_DewPointDepression_IsbL-0030_RLatLon0.09_PT042H.grib2 2026-04-20 08:50 193
20260420T06Z_MSC_RDPS_DewPointDepression_IsbL-0050_RLatLon0.09_PT042H.grib2 2026-04-20 08:50 92K
20260420T06Z_MSC_RDPS_DewPointDepression_IsbL-0100_RLatLon0.09_PT042H.grib2 2026-04-20 08:50 126K
20260420T06Z_MSC_RDPS_DewPointDepression_IsbL-0150_RLatLon0.09_PT042H.grib2 2026-04-20 08:50 154K
20260420T06Z_MSC_RDPS_DewPointDepression_IsbL-0175_RLatLon0.09_PT042H.grib2 2026-04-20 08:50 197K
20260420T06Z_MSC_RDPS_DewPointDepression_IsbL-0200_RLatLon0.09_PT042H.grib2 2026-04-20 08:50 237K
20260420T06Z_MSC_RDPS_DewPointDepression_IsbL-0225_RLatLon0.09_PT042H.grib2 2026-04-20 08:50 267K
20260420T06Z_MSC_RDPS_DewPointDepression_IsbL-0250_RLatLon0.09_PT042H.grib2 2026-04-20 08:50 306K
20260420T06Z_MSC_RDPS_DewPointDepression_IsbL-0275_RLatLon0.09_PT042H.grib2 2026-04-20 08:50 315K
20260420T06Z_MSC_RDPS_DewPointDepression_IsbL-0300_RLatLon0.09_PT042H.grib2 2026-04-20 08:50 336K
20260420T06Z_MSC_RDPS_DewPointDepression_IsbL-0350_RLatLon0.09_PT042H.grib2 2026-04-20 08:50 343K
20260420T06Z_MSC_RDPS_DewPointDepression_IsbL-0400_RLatLon0.09_PT042H.grib2 2026-04-20 08:50 355K
20260420T06Z_MSC_RDPS_DewPointDepression_IsbL-0450_RLatLon0.09_PT042H.grib2 2026-04-20 08:50 364K
20260420T06Z_MSC_RDPS_DewPointDepression_IsbL-0500_RLatLon0.09_PT042H.grib2 2026-04-20 08:50 377K
20260420T06Z_MSC_RDPS_DewPointDepression_IsbL-0550_RLatLon0.09_PT042H.grib2 2026-04-20 08:50 393K
20260420T06Z_MSC_RDPS_DewPointDepression_IsbL-0600_RLatLon0.09_PT042H.grib2 2026-04-20 08:50 403K
20260420T06Z_MSC_RDPS_DewPointDepression_IsbL-0650_RLatLon0.09_PT042H.grib2 2026-04-20 08:50 399K
20260420T06Z_MSC_RDPS_DewPointDepression_IsbL-0700_RLatLon0.09_PT042H.grib2 2026-04-20 08:50 404K
20260420T06Z_MSC_RDPS_DewPointDepression_IsbL-0750_RLatLon0.09_PT042H.grib2 2026-04-20 08:50 424K
20260420T06Z_MSC_RDPS_DewPointDepression_IsbL-0800_RLatLon0.09_PT042H.grib2 2026-04-20 08:50 457K
20260420T06Z_MSC_RDPS_DewPointDepression_IsbL-0850_RLatLon0.09_PT042H.grib2 2026-04-20 08:50 473K
20260420T06Z_MSC_RDPS_DewPointDepression_IsbL-0875_RLatLon0.09_PT042H.grib2 2026-04-20 08:50 464K
20260420T06Z_MSC_RDPS_DewPointDepression_IsbL-0900_RLatLon0.09_PT042H.grib2 2026-04-20 08:50 456K
20260420T06Z_MSC_RDPS_DewPointDepression_IsbL-0925_RLatLon0.09_PT042H.grib2 2026-04-20 08:50 448K
20260420T06Z_MSC_RDPS_DewPointDepression_IsbL-0950_RLatLon0.09_PT042H.grib2 2026-04-20 08:50 442K
20260420T06Z_MSC_RDPS_DewPointDepression_IsbL-0970_RLatLon0.09_PT042H.grib2 2026-04-20 08:50 437K
20260420T06Z_MSC_RDPS_DewPointDepression_IsbL-0985_RLatLon0.09_PT042H.grib2 2026-04-20 08:50 432K
20260420T06Z_MSC_RDPS_DewPointDepression_IsbL-1000_RLatLon0.09_PT042H.grib2 2026-04-20 08:50 424K
20260420T06Z_MSC_RDPS_DewPointDepression_IsbL-1015_RLatLon0.09_PT042H.grib2 2026-04-20 08:50 415K
20260420T06Z_MSC_RDPS_DewPoint_AGL-2m_RLatLon0.09_PT042H.grib2 2026-04-20 08:50 397K
20260420T06Z_MSC_RDPS_DownwardLongwaveRadiationFlux-Accum_Sfc_RLatLon0.09_PT042H.grib2 2026-04-20 08:50 384K
20260420T06Z_MSC_RDPS_DownwardShortwaveRadiationFlux-Accum_NTAtm_RLatLon0.09_PT042H.grib2 2026-04-20 08:50 96K
20260420T06Z_MSC_RDPS_DownwardShortwaveRadiationFlux-Accum_Sfc_RLatLon0.09_PT042H.grib2 2026-04-20 08:50 534K
20260420T06Z_MSC_RDPS_FreezingRain-Accum12h_Sfc_RLatLon0.09_PT042H.grib2 2026-04-20 08:50 36K
20260420T06Z_MSC_RDPS_FreezingRain-Accum1h_Sfc_RLatLon0.09_PT042H.grib2 2026-04-20 08:50 17K
20260420T06Z_MSC_RDPS_FreezingRain-Accum24h_Sfc_RLatLon0.09_PT042H.grib2 2026-04-20 08:50 65K
20260420T06Z_MSC_RDPS_FreezingRain-Accum3h_Sfc_RLatLon0.09_PT042H.grib2 2026-04-20 08:50 18K
20260420T06Z_MSC_RDPS_FreezingRain-Accum6h_Sfc_RLatLon0.09_PT042H.grib2 2026-04-20 08:50 21K
20260420T06Z_MSC_RDPS_FreezingRain-Accum_Sfc_RLatLon0.09_PT042H.grib2 2026-04-20 08:50 110K
20260420T06Z_MSC_RDPS_GeopotentialHeight_IsbL-0001_RLatLon0.09_PT042H.grib2 2026-04-20 08:50 274K
20260420T06Z_MSC_RDPS_GeopotentialHeight_IsbL-0005_RLatLon0.09_PT042H.grib2 2026-04-20 08:50 239K
20260420T06Z_MSC_RDPS_GeopotentialHeight_IsbL-0010_RLatLon0.09_PT042H.grib2 2026-04-20 08:50 314K
20260420T06Z_MSC_RDPS_GeopotentialHeight_IsbL-0020_RLatLon0.09_PT042H.grib2 2026-04-20 08:50 311K
20260420T06Z_MSC_RDPS_GeopotentialHeight_IsbL-0030_RLatLon0.09_PT042H.grib2 2026-04-20 08:50 313K
20260420T06Z_MSC_RDPS_GeopotentialHeight_IsbL-0050_RLatLon0.09_PT042H.grib2 2026-04-20 08:50 348K
20260420T06Z_MSC_RDPS_GeopotentialHeight_IsbL-0100_RLatLon0.09_PT042H.grib2 2026-04-20 08:50 294K
20260420T06Z_MSC_RDPS_GeopotentialHeight_IsbL-0150_RLatLon0.09_PT042H.grib2 2026-04-20 08:50 235K
20260420T06Z_MSC_RDPS_GeopotentialHeight_IsbL-0175_RLatLon0.09_PT042H.grib2 2026-04-20 08:50 269K
20260420T06Z_MSC_RDPS_GeopotentialHeight_IsbL-0200_RLatLon0.09_PT042H.grib2 2026-04-20 08:50 272K
20260420T06Z_MSC_RDPS_GeopotentialHeight_IsbL-0225_RLatLon0.09_PT042H.grib2 2026-04-20 08:50 272K
20260420T06Z_MSC_RDPS_GeopotentialHeight_IsbL-0250_RLatLon0.09_PT042H.grib2 2026-04-20 08:50 273K
20260420T06Z_MSC_RDPS_GeopotentialHeight_IsbL-0275_RLatLon0.09_PT042H.grib2 2026-04-20 08:50 270K
20260420T06Z_MSC_RDPS_GeopotentialHeight_IsbL-0300_RLatLon0.09_PT042H.grib2 2026-04-20 08:50 269K
20260420T06Z_MSC_RDPS_GeopotentialHeight_IsbL-0350_RLatLon0.09_PT042H.grib2 2026-04-20 08:50 236K
20260420T06Z_MSC_RDPS_GeopotentialHeight_IsbL-0400_RLatLon0.09_PT042H.grib2 2026-04-20 08:50 232K
20260420T06Z_MSC_RDPS_GeopotentialHeight_IsbL-0450_RLatLon0.09_PT042H.grib2 2026-04-20 08:50 302K
20260420T06Z_MSC_RDPS_GeopotentialHeight_IsbL-0500_RLatLon0.09_PT042H.grib2 2026-04-20 08:50 298K
20260420T06Z_MSC_RDPS_GeopotentialHeight_IsbL-0550_RLatLon0.09_PT042H.grib2 2026-04-20 08:50 295K
20260420T06Z_MSC_RDPS_GeopotentialHeight_IsbL-0600_RLatLon0.09_PT042H.grib2 2026-04-20 08:50 291K
20260420T06Z_MSC_RDPS_GeopotentialHeight_IsbL-0650_RLatLon0.09_PT042H.grib2 2026-04-20 08:50 261K
20260420T06Z_MSC_RDPS_GeopotentialHeight_IsbL-0700_RLatLon0.09_PT042H.grib2 2026-04-20 08:50 258K
20260420T06Z_MSC_RDPS_GeopotentialHeight_IsbL-0750_RLatLon0.09_PT042H.grib2 2026-04-20 08:50 258K
20260420T06Z_MSC_RDPS_GeopotentialHeight_IsbL-0800_RLatLon0.09_PT042H.grib2 2026-04-20 08:50 263K
20260420T06Z_MSC_RDPS_GeopotentialHeight_IsbL-0850_RLatLon0.09_PT042H.grib2 2026-04-20 08:50 268K
20260420T06Z_MSC_RDPS_GeopotentialHeight_IsbL-0875_RLatLon0.09_PT042H.grib2 2026-04-20 08:50 270K
20260420T06Z_MSC_RDPS_GeopotentialHeight_IsbL-0900_RLatLon0.09_PT042H.grib2 2026-04-20 08:50 274K
20260420T06Z_MSC_RDPS_GeopotentialHeight_IsbL-0925_RLatLon0.09_PT042H.grib2 2026-04-20 08:50 276K
20260420T06Z_MSC_RDPS_GeopotentialHeight_IsbL-0950_RLatLon0.09_PT042H.grib2 2026-04-20 08:50 280K
20260420T06Z_MSC_RDPS_GeopotentialHeight_IsbL-0970_RLatLon0.09_PT042H.grib2 2026-04-20 08:50 285K
20260420T06Z_MSC_RDPS_GeopotentialHeight_IsbL-0985_RLatLon0.09_PT042H.grib2 2026-04-20 08:50 292K
20260420T06Z_MSC_RDPS_GeopotentialHeight_IsbL-1000_RLatLon0.09_PT042H.grib2 2026-04-20 08:50 302K
20260420T06Z_MSC_RDPS_GeopotentialHeight_IsbL-1015_RLatLon0.09_PT042H.grib2 2026-04-20 08:50 312K
20260420T06Z_MSC_RDPS_Humidex_Sfc_RLatLon0.09_PT042H.grib2 2026-04-20 08:50 2.4M
20260420T06Z_MSC_RDPS_IcePellets-Accum12h_Sfc_RLatLon0.09_PT042H.grib2 2026-04-20 08:50 10K
20260420T06Z_MSC_RDPS_IcePellets-Accum1h_Sfc_RLatLon0.09_PT042H.grib2 2026-04-20 08:50 7.9K
20260420T06Z_MSC_RDPS_IcePellets-Accum24h_Sfc_RLatLon0.09_PT042H.grib2 2026-04-20 08:50 12K
20260420T06Z_MSC_RDPS_IcePellets-Accum3h_Sfc_RLatLon0.09_PT042H.grib2 2026-04-20 08:50 8.8K
20260420T06Z_MSC_RDPS_IcePellets-Accum6h_Sfc_RLatLon0.09_PT042H.grib2 2026-04-20 08:50 11K
20260420T06Z_MSC_RDPS_IcePellets-Accum_Sfc_RLatLon0.09_PT042H.grib2 2026-04-20 08:50 20K
20260420T06Z_MSC_RDPS_KIndex_Sfc_RLatLon0.09_PT042H.grib2 2026-04-20 08:50 2.5M
20260420T06Z_MSC_RDPS_LatentHeatNetFlux_Sfc_RLatLon0.09_PT042H.grib2 2026-04-20 08:50 350K
20260420T06Z_MSC_RDPS_LiftedIndex-MU-VT_IsbL-0500_RLatLon0.09_PT042H.grib2 2026-04-20 08:50 2.4M
20260420T06Z_MSC_RDPS_NetLongwaveRadiationFlux-Accum_Sfc_RLatLon0.09_PT042H.grib2 2026-04-20 08:50 524K
20260420T06Z_MSC_RDPS_NetShortwaveRadiationFlux-Accum_Sfc_RLatLon0.09_PT042H.grib2 2026-04-20 08:50 548K
20260420T06Z_MSC_RDPS_PlanetaryBoundaryLayerHeight_Sfc_RLatLon0.09_PT042H.grib2 2026-04-20 08:50 1.0M
20260420T06Z_MSC_RDPS_Precip-Accum12h_Sfc_RLatLon0.09_PT042H.grib2 2026-04-20 08:50 1.6M
20260420T06Z_MSC_RDPS_Precip-Accum1h_Sfc_RLatLon0.09_PT042H.grib2 2026-04-20 08:50 1.2M
20260420T06Z_MSC_RDPS_Precip-Accum24h_Sfc_RLatLon0.09_PT042H.grib2 2026-04-20 08:50 1.7M
20260420T06Z_MSC_RDPS_Precip-Accum3h_Sfc_RLatLon0.09_PT042H.grib2 2026-04-20 08:50 1.3M
20260420T06Z_MSC_RDPS_Precip-Accum6h_Sfc_RLatLon0.09_PT042H.grib2 2026-04-20 08:50 1.5M
20260420T06Z_MSC_RDPS_Precip-Accum_Sfc_RLatLon0.09_PT042H.grib2 2026-04-20 08:50 1.9M
20260420T06Z_MSC_RDPS_PrecipRate_Sfc_RLatLon0.09_PT042H.grib2 2026-04-20 08:50 196K
20260420T06Z_MSC_RDPS_PrecipType-Instant_Sfc_RLatLon0.09_PT042H.grib2 2026-04-20 08:50 591K
20260420T06Z_MSC_RDPS_Pressure-Trend3h_Sfc_RLatLon0.09_PT042H.grib2 2026-04-20 08:50 1.2M
20260420T06Z_MSC_RDPS_Pressure_MSL_RLatLon0.09_PT042H.grib2 2026-04-20 08:50 330K
20260420T06Z_MSC_RDPS_Pressure_PVU-1.5_RLatLon0.09_PT042H.grib2 2026-04-20 08:50 2.3M
20260420T06Z_MSC_RDPS_Pressure_PVU-1_RLatLon0.09_PT042H.grib2 2026-04-20 08:50 2.4M
20260420T06Z_MSC_RDPS_Pressure_PVU-2_RLatLon0.09_PT042H.grib2 2026-04-20 08:50 2.4M
20260420T06Z_MSC_RDPS_Pressure_Sfc_RLatLon0.09_PT042H.grib2 2026-04-20 08:50 501K
20260420T06Z_MSC_RDPS_RadiativeTemp_Sfc_RLatLon0.09_PT042H.grib2 2026-04-20 08:50 319K
20260420T06Z_MSC_RDPS_Rain-Accum12h_Sfc_RLatLon0.09_PT042H.grib2 2026-04-20 08:50 1.2M
20260420T06Z_MSC_RDPS_Rain-Accum1h_Sfc_RLatLon0.09_PT042H.grib2 2026-04-20 08:50 616K
20260420T06Z_MSC_RDPS_Rain-Accum24h_Sfc_RLatLon0.09_PT042H.grib2 2026-04-20 08:50 1.3M
20260420T06Z_MSC_RDPS_Rain-Accum3h_Sfc_RLatLon0.09_PT042H.grib2 2026-04-20 08:50 710K
20260420T06Z_MSC_RDPS_Rain-Accum6h_Sfc_RLatLon0.09_PT042H.grib2 2026-04-20 08:50 1.0M
20260420T06Z_MSC_RDPS_Rain-Accum_Sfc_RLatLon0.09_PT042H.grib2 2026-04-20 08:50 1.5M
20260420T06Z_MSC_RDPS_RelativeHumidity_AGL-2m_RLatLon0.09_PT042H.grib2 2026-04-20 08:50 1.0M
20260420T06Z_MSC_RDPS_RelativeHumidity_IsbL-0010_RLatLon0.09_PT042H.grib2 2026-04-20 08:50 625K
20260420T06Z_MSC_RDPS_RelativeHumidity_IsbL-0020_RLatLon0.09_PT042H.grib2 2026-04-20 08:50 572K
20260420T06Z_MSC_RDPS_RelativeHumidity_IsbL-0030_RLatLon0.09_PT042H.grib2 2026-04-20 08:50 549K
20260420T06Z_MSC_RDPS_RelativeHumidity_IsbL-0050_RLatLon0.09_PT042H.grib2 2026-04-20 08:50 340K
20260420T06Z_MSC_RDPS_RelativeHumidity_IsbL-0100_RLatLon0.09_PT042H.grib2 2026-04-20 08:50 270K
20260420T06Z_MSC_RDPS_RelativeHumidity_IsbL-0150_RLatLon0.09_PT042H.grib2 2026-04-20 08:50 382K
20260420T06Z_MSC_RDPS_RelativeHumidity_IsbL-0175_RLatLon0.09_PT042H.grib2 2026-04-20 08:50 479K
20260420T06Z_MSC_RDPS_RelativeHumidity_IsbL-0200_RLatLon0.09_PT042H.grib2 2026-04-20 08:50 570K
20260420T06Z_MSC_RDPS_RelativeHumidity_IsbL-0225_RLatLon0.09_PT042H.grib2 2026-04-20 08:50 643K
20260420T06Z_MSC_RDPS_RelativeHumidity_IsbL-0250_RLatLon0.09_PT042H.grib2 2026-04-20 08:50 707K
20260420T06Z_MSC_RDPS_RelativeHumidity_IsbL-0275_RLatLon0.09_PT042H.grib2 2026-04-20 08:50 721K
20260420T06Z_MSC_RDPS_RelativeHumidity_IsbL-0300_RLatLon0.09_PT042H.grib2 2026-04-20 08:50 759K
20260420T06Z_MSC_RDPS_RelativeHumidity_IsbL-0350_RLatLon0.09_PT042H.grib2 2026-04-20 08:50 779K
20260420T06Z_MSC_RDPS_RelativeHumidity_IsbL-0400_RLatLon0.09_PT042H.grib2 2026-04-20 08:50 797K
20260420T06Z_MSC_RDPS_RelativeHumidity_IsbL-0450_RLatLon0.09_PT042H.grib2 2026-04-20 08:50 809K
20260420T06Z_MSC_RDPS_RelativeHumidity_IsbL-0500_RLatLon0.09_PT042H.grib2 2026-04-20 08:50 835K
20260420T06Z_MSC_RDPS_RelativeHumidity_IsbL-0550_RLatLon0.09_PT042H.grib2 2026-04-20 08:50 859K
20260420T06Z_MSC_RDPS_RelativeHumidity_IsbL-0600_RLatLon0.09_PT042H.grib2 2026-04-20 08:50 877K
20260420T06Z_MSC_RDPS_RelativeHumidity_IsbL-0650_RLatLon0.09_PT042H.grib2 2026-04-20 08:50 870K
20260420T06Z_MSC_RDPS_RelativeHumidity_IsbL-0700_RLatLon0.09_PT042H.grib2 2026-04-20 08:50 881K
20260420T06Z_MSC_RDPS_RelativeHumidity_IsbL-0750_RLatLon0.09_PT042H.grib2 2026-04-20 08:50 919K
20260420T06Z_MSC_RDPS_RelativeHumidity_IsbL-0800_RLatLon0.09_PT042H.grib2 2026-04-20 08:50 1.0M
20260420T06Z_MSC_RDPS_RelativeHumidity_IsbL-0850_RLatLon0.09_PT042H.grib2 2026-04-20 08:50 1.0M
20260420T06Z_MSC_RDPS_RelativeHumidity_IsbL-0875_RLatLon0.09_PT042H.grib2 2026-04-20 08:50 1.0M
20260420T06Z_MSC_RDPS_RelativeHumidity_IsbL-0900_RLatLon0.09_PT042H.grib2 2026-04-20 08:50 1.0M
20260420T06Z_MSC_RDPS_RelativeHumidity_IsbL-0925_RLatLon0.09_PT042H.grib2 2026-04-20 08:50 1.1M
20260420T06Z_MSC_RDPS_RelativeHumidity_IsbL-0950_RLatLon0.09_PT042H.grib2 2026-04-20 08:50 1.1M
20260420T06Z_MSC_RDPS_RelativeHumidity_IsbL-0970_RLatLon0.09_PT042H.grib2 2026-04-20 08:50 1.0M
20260420T06Z_MSC_RDPS_RelativeHumidity_IsbL-0985_RLatLon0.09_PT042H.grib2 2026-04-20 08:50 1.0M
20260420T06Z_MSC_RDPS_RelativeHumidity_IsbL-1000_RLatLon0.09_PT042H.grib2 2026-04-20 08:50 1.0M
20260420T06Z_MSC_RDPS_RelativeHumidity_IsbL-1015_RLatLon0.09_PT042H.grib2 2026-04-20 08:50 1.0M
20260420T06Z_MSC_RDPS_Runoff-Accum_Sfc_RLatLon0.09_PT042H.grib2 2026-04-20 08:50 50K
20260420T06Z_MSC_RDPS_SWEATIndex_Sfc_RLatLon0.09_PT042H.grib2 2026-04-20 08:50 2.4M
20260420T06Z_MSC_RDPS_SeeingIndex_EAtm_RLatLon0.09_PT042H.grib2 2026-04-20 08:50 1.0M
20260420T06Z_MSC_RDPS_SensibleHeatNetFlux_Sfc_RLatLon0.09_PT042H.grib2 2026-04-20 08:50 322K
20260420T06Z_MSC_RDPS_ShowalterIndex_IsbL-0500_RLatLon0.09_PT042H.grib2 2026-04-20 08:50 2.6M
20260420T06Z_MSC_RDPS_SkyTransparencyIndex_EAtm_RLatLon0.09_PT042H.grib2 2026-04-20 08:50 719K
20260420T06Z_MSC_RDPS_Snow-Accum12h_Sfc_RLatLon0.09_PT042H.grib2 2026-04-20 08:50 506K
20260420T06Z_MSC_RDPS_Snow-Accum1h_Sfc_RLatLon0.09_PT042H.grib2 2026-04-20 08:50 451K
20260420T06Z_MSC_RDPS_Snow-Accum24h_Sfc_RLatLon0.09_PT042H.grib2 2026-04-20 08:50 520K
20260420T06Z_MSC_RDPS_Snow-Accum3h_Sfc_RLatLon0.09_PT042H.grib2 2026-04-20 08:50 456K
20260420T06Z_MSC_RDPS_Snow-Accum6h_Sfc_RLatLon0.09_PT042H.grib2 2026-04-20 08:50 520K
20260420T06Z_MSC_RDPS_Snow-Accum_Sfc_RLatLon0.09_PT042H.grib2 2026-04-20 08:50 626K
20260420T06Z_MSC_RDPS_SnowDensity_Sfc_RLatLon0.09_PT042H.grib2 2026-04-20 08:50 172K
20260420T06Z_MSC_RDPS_SnowDepth_Sfc_RLatLon0.09_PT042H.grib2 2026-04-20 08:50 706K
20260420T06Z_MSC_RDPS_SoilTemp_DBS-0to10cm_RLatLon0.09_PT042H.grib2 2026-04-20 08:50 239K
20260420T06Z_MSC_RDPS_SoilTemp_Sfc_RLatLon0.09_PT042H.grib2 2026-04-20 08:50 279K
20260420T06Z_MSC_RDPS_SoilVolumetricIceContent_Sfc_RLatLon0.09_PT042H.grib2 2026-04-20 08:50 170K
20260420T06Z_MSC_RDPS_SoilVolumetricWaterContent_DBS-0to10cm_RLatLon0.09_PT042H.grib2 2026-04-20 08:50 250K
20260420T06Z_MSC_RDPS_SoilVolumetricWaterContent_DBS-0to1cm_RLatLon0.09_PT042H.grib2 2026-04-20 08:50 337K
20260420T06Z_MSC_RDPS_SpecificHumidity_AGL-120m_RLatLon0.09_PT042H.grib2 2026-04-20 08:50 479K
20260420T06Z_MSC_RDPS_SpecificHumidity_AGL-2m_RLatLon0.09_PT042H.grib2 2026-04-20 08:50 647K
20260420T06Z_MSC_RDPS_SpecificHumidity_AGL-40m_RLatLon0.09_PT042H.grib2 2026-04-20 08:50 486K
20260420T06Z_MSC_RDPS_SpecificHumidity_AGL-80m_RLatLon0.09_PT042H.grib2 2026-04-20 08:50 480K
20260420T06Z_MSC_RDPS_SpecificHumidity_IsbL-0001_RLatLon0.09_PT042H.grib2 2026-04-20 08:50 323K
20260420T06Z_MSC_RDPS_SpecificHumidity_IsbL-0005_RLatLon0.09_PT042H.grib2 2026-04-20 08:50 408K
20260420T06Z_MSC_RDPS_SpecificHumidity_IsbL-0010_RLatLon0.09_PT042H.grib2 2026-04-20 08:50 378K
20260420T06Z_MSC_RDPS_SpecificHumidity_IsbL-0020_RLatLon0.09_PT042H.grib2 2026-04-20 08:50 374K
20260420T06Z_MSC_RDPS_SpecificHumidity_IsbL-0030_RLatLon0.09_PT042H.grib2 2026-04-20 08:50 478K
20260420T06Z_MSC_RDPS_SpecificHumidity_IsbL-0050_RLatLon0.09_PT042H.grib2 2026-04-20 08:50 472K
20260420T06Z_MSC_RDPS_SpecificHumidity_IsbL-0100_RLatLon0.09_PT042H.grib2 2026-04-20 08:50 414K
20260420T06Z_MSC_RDPS_SpecificHumidity_IsbL-0150_RLatLon0.09_PT042H.grib2 2026-04-20 08:50 445K
20260420T06Z_MSC_RDPS_SpecificHumidity_IsbL-0175_RLatLon0.09_PT042H.grib2 2026-04-20 08:50 540K
20260420T06Z_MSC_RDPS_SpecificHumidity_IsbL-0200_RLatLon0.09_PT042H.grib2 2026-04-20 08:50 456K
20260420T06Z_MSC_RDPS_SpecificHumidity_IsbL-0225_RLatLon0.09_PT042H.grib2 2026-04-20 08:50 566K
20260420T06Z_MSC_RDPS_SpecificHumidity_IsbL-0250_RLatLon0.09_PT042H.grib2 2026-04-20 08:50 568K
20260420T06Z_MSC_RDPS_SpecificHumidity_IsbL-0275_RLatLon0.09_PT042H.grib2 2026-04-20 08:50 481K
20260420T06Z_MSC_RDPS_SpecificHumidity_IsbL-0300_RLatLon0.09_PT042H.grib2 2026-04-20 08:50 551K
20260420T06Z_MSC_RDPS_SpecificHumidity_IsbL-0350_RLatLon0.09_PT042H.grib2 2026-04-20 08:50 544K
20260420T06Z_MSC_RDPS_SpecificHumidity_IsbL-0400_RLatLon0.09_PT042H.grib2 2026-04-20 08:50 526K
20260420T06Z_MSC_RDPS_SpecificHumidity_IsbL-0450_RLatLon0.09_PT042H.grib2 2026-04-20 08:50 583K
20260420T06Z_MSC_RDPS_SpecificHumidity_IsbL-0500_RLatLon0.09_PT042H.grib2 2026-04-20 08:50 527K
20260420T06Z_MSC_RDPS_SpecificHumidity_IsbL-0550_RLatLon0.09_PT042H.grib2 2026-04-20 08:50 605K
20260420T06Z_MSC_RDPS_SpecificHumidity_IsbL-0600_RLatLon0.09_PT042H.grib2 2026-04-20 08:50 657K
20260420T06Z_MSC_RDPS_SpecificHumidity_IsbL-0650_RLatLon0.09_PT042H.grib2 2026-04-20 08:50 565K
20260420T06Z_MSC_RDPS_SpecificHumidity_IsbL-0700_RLatLon0.09_PT042H.grib2 2026-04-20 08:50 599K
20260420T06Z_MSC_RDPS_SpecificHumidity_IsbL-0750_RLatLon0.09_PT042H.grib2 2026-04-20 08:50 650K
20260420T06Z_MSC_RDPS_SpecificHumidity_IsbL-0800_RLatLon0.09_PT042H.grib2 2026-04-20 08:50 736K
20260420T06Z_MSC_RDPS_SpecificHumidity_IsbL-0850_RLatLon0.09_PT042H.grib2 2026-04-20 08:50 802K
20260420T06Z_MSC_RDPS_SpecificHumidity_IsbL-0875_RLatLon0.09_PT042H.grib2 2026-04-20 08:50 817K
20260420T06Z_MSC_RDPS_SpecificHumidity_IsbL-0900_RLatLon0.09_PT042H.grib2 2026-04-20 08:50 825K
20260420T06Z_MSC_RDPS_SpecificHumidity_IsbL-0925_RLatLon0.09_PT042H.grib2 2026-04-20 08:50 829K
20260420T06Z_MSC_RDPS_SpecificHumidity_IsbL-0950_RLatLon0.09_PT042H.grib2 2026-04-20 08:50 691K
20260420T06Z_MSC_RDPS_SpecificHumidity_IsbL-0970_RLatLon0.09_PT042H.grib2 2026-04-20 08:50 685K
20260420T06Z_MSC_RDPS_SpecificHumidity_IsbL-0985_RLatLon0.09_PT042H.grib2 2026-04-20 08:50 677K
20260420T06Z_MSC_RDPS_SpecificHumidity_IsbL-1000_RLatLon0.09_PT042H.grib2 2026-04-20 08:50 668K
20260420T06Z_MSC_RDPS_SpecificHumidity_IsbL-1015_RLatLon0.09_PT042H.grib2 2026-04-20 08:50 660K
20260420T06Z_MSC_RDPS_SpecificHumidity_Sfc_RLatLon0.09_PT042H.grib2 2026-04-20 08:50 330K
20260420T06Z_MSC_RDPS_StormRelativeHelicity_EtaL-10000_RLatLon0.09_PT042H.grib2 2026-04-20 08:50 1.1M
20260420T06Z_MSC_RDPS_StormSeverityIndex_EtaL-10000_RLatLon0.09_PT042H.grib2 2026-04-20 08:50 1.2M
20260420T06Z_MSC_RDPS_Thickness_IsbL-0850to0700_RLatLon0.09_PT042H.grib2 2026-04-20 08:50 179K
20260420T06Z_MSC_RDPS_Thickness_IsbL-1000to0500_RLatLon0.09_PT042H.grib2 2026-04-20 08:50 203K
20260420T06Z_MSC_RDPS_Thickness_IsbL-1000to0850_RLatLon0.09_PT042H.grib2 2026-04-20 08:50 186K
20260420T06Z_MSC_RDPS_TotalCloudCover_Sfc_RLatLon0.09_PT042H.grib2 2026-04-20 08:50 647K
20260420T06Z_MSC_RDPS_TotalTotalsIndex_Sfc_RLatLon0.09_PT042H.grib2 2026-04-20 08:50 2.4M
20260420T06Z_MSC_RDPS_UVIndex-ClearSky_Sfc_RLatLon0.09_PT042H.grib2 2026-04-20 08:50 178K
20260420T06Z_MSC_RDPS_UVIndex_Sfc_RLatLon0.09_PT042H.grib2 2026-04-20 08:50 377K
20260420T06Z_MSC_RDPS_UpwardLongwaveRadiationFlux_NTAtm_RLatLon0.09_PT042H.grib2 2026-04-20 08:50 496K
20260420T06Z_MSC_RDPS_UpwardShortwaveRadiationFlux_NTAtm_RLatLon0.09_PT042H.grib2 2026-04-20 08:50 333K
20260420T06Z_MSC_RDPS_VerticalVelocity_IsbL-0250_RLatLon0.09_PT042H.grib2 2026-04-20 08:50 594K
20260420T06Z_MSC_RDPS_VerticalVelocity_IsbL-0500_RLatLon0.09_PT042H.grib2 2026-04-20 08:50 559K
20260420T06Z_MSC_RDPS_VerticalVelocity_IsbL-0700_RLatLon0.09_PT042H.grib2 2026-04-20 08:50 614K
20260420T06Z_MSC_RDPS_VerticalVelocity_IsbL-0850_RLatLon0.09_PT042H.grib2 2026-04-20 08:50 700K
20260420T06Z_MSC_RDPS_VerticalWindShear_EtaL-6500_RLatLon0.09_PT042H.grib2 2026-04-20 08:50 1.2M
20260420T06Z_MSC_RDPS_WindChill_Sfc_RLatLon0.09_PT042H.grib2 2026-04-20 08:50 1.2M
20260420T06Z_MSC_RDPS_WindDir_AGL-10m_RLatLon0.09_PT042H.grib2 2026-04-20 08:50 956K
20260420T06Z_MSC_RDPS_WindDir_AGL-120m_RLatLon0.09_PT042H.grib2 2026-04-20 08:50 605K
20260420T06Z_MSC_RDPS_WindDir_AGL-40m_RLatLon0.09_PT042H.grib2 2026-04-20 08:50 627K
20260420T06Z_MSC_RDPS_WindDir_AGL-80m_RLatLon0.09_PT042H.grib2 2026-04-20 08:50 613K
20260420T06Z_MSC_RDPS_WindDir_IsbL-0001_RLatLon0.09_PT042H.grib2 2026-04-20 08:50 258K
20260420T06Z_MSC_RDPS_WindDir_IsbL-0005_RLatLon0.09_PT042H.grib2 2026-04-20 08:50 350K
20260420T06Z_MSC_RDPS_WindDir_IsbL-0010_RLatLon0.09_PT042H.grib2 2026-04-20 08:50 390K
20260420T06Z_MSC_RDPS_WindDir_IsbL-0020_RLatLon0.09_PT042H.grib2 2026-04-20 08:50 411K
20260420T06Z_MSC_RDPS_WindDir_IsbL-0030_RLatLon0.09_PT042H.grib2 2026-04-20 08:50 409K
20260420T06Z_MSC_RDPS_WindDir_IsbL-0050_RLatLon0.09_PT042H.grib2 2026-04-20 08:50 423K
20260420T06Z_MSC_RDPS_WindDir_IsbL-0100_RLatLon0.09_PT042H.grib2 2026-04-20 08:50 425K
20260420T06Z_MSC_RDPS_WindDir_IsbL-0150_RLatLon0.09_PT042H.grib2 2026-04-20 08:50 423K
20260420T06Z_MSC_RDPS_WindDir_IsbL-0175_RLatLon0.09_PT042H.grib2 2026-04-20 08:50 444K
20260420T06Z_MSC_RDPS_WindDir_IsbL-0200_RLatLon0.09_PT042H.grib2 2026-04-20 08:50 454K
20260420T06Z_MSC_RDPS_WindDir_IsbL-0225_RLatLon0.09_PT042H.grib2 2026-04-20 08:50 450K
20260420T06Z_MSC_RDPS_WindDir_IsbL-0250_RLatLon0.09_PT042H.grib2 2026-04-20 08:50 444K
20260420T06Z_MSC_RDPS_WindDir_IsbL-0275_RLatLon0.09_PT042H.grib2 2026-04-20 08:50 465K
20260420T06Z_MSC_RDPS_WindDir_IsbL-0300_RLatLon0.09_PT042H.grib2 2026-04-20 08:50 463K
20260420T06Z_MSC_RDPS_WindDir_IsbL-0350_RLatLon0.09_PT042H.grib2 2026-04-20 08:50 483K
20260420T06Z_MSC_RDPS_WindDir_IsbL-0400_RLatLon0.09_PT042H.grib2 2026-04-20 08:50 503K
20260420T06Z_MSC_RDPS_WindDir_IsbL-0450_RLatLon0.09_PT042H.grib2 2026-04-20 08:50 520K
20260420T06Z_MSC_RDPS_WindDir_IsbL-0500_RLatLon0.09_PT042H.grib2 2026-04-20 08:50 542K
20260420T06Z_MSC_RDPS_WindDir_IsbL-0550_RLatLon0.09_PT042H.grib2 2026-04-20 08:50 563K
20260420T06Z_MSC_RDPS_WindDir_IsbL-0600_RLatLon0.09_PT042H.grib2 2026-04-20 08:50 591K
20260420T06Z_MSC_RDPS_WindDir_IsbL-0650_RLatLon0.09_PT042H.grib2 2026-04-20 08:50 634K
20260420T06Z_MSC_RDPS_WindDir_IsbL-0700_RLatLon0.09_PT042H.grib2 2026-04-20 08:50 675K
20260420T06Z_MSC_RDPS_WindDir_IsbL-0750_RLatLon0.09_PT042H.grib2 2026-04-20 08:50 721K
20260420T06Z_MSC_RDPS_WindDir_IsbL-0800_RLatLon0.09_PT042H.grib2 2026-04-20 08:50 795K
20260420T06Z_MSC_RDPS_WindDir_IsbL-0850_RLatLon0.09_PT042H.grib2 2026-04-20 08:50 872K
20260420T06Z_MSC_RDPS_WindDir_IsbL-0875_RLatLon0.09_PT042H.grib2 2026-04-20 08:50 894K
20260420T06Z_MSC_RDPS_WindDir_IsbL-0900_RLatLon0.09_PT042H.grib2 2026-04-20 08:50 904K
20260420T06Z_MSC_RDPS_WindDir_IsbL-0925_RLatLon0.09_PT042H.grib2 2026-04-20 08:50 910K
20260420T06Z_MSC_RDPS_WindDir_IsbL-0950_RLatLon0.09_PT042H.grib2 2026-04-20 08:50 910K
20260420T06Z_MSC_RDPS_WindDir_IsbL-0970_RLatLon0.09_PT042H.grib2 2026-04-20 08:50 913K
20260420T06Z_MSC_RDPS_WindDir_IsbL-0985_RLatLon0.09_PT042H.grib2 2026-04-20 08:50 921K
20260420T06Z_MSC_RDPS_WindDir_IsbL-1000_RLatLon0.09_PT042H.grib2 2026-04-20 08:50 933K
20260420T06Z_MSC_RDPS_WindDir_IsbL-1015_RLatLon0.09_PT042H.grib2 2026-04-20 08:50 948K
20260420T06Z_MSC_RDPS_WindGust-Max_AGL-10m_RLatLon0.09_PT042H.grib2 2026-04-20 08:50 954K
20260420T06Z_MSC_RDPS_WindGust-Min_AGL-10m_RLatLon0.09_PT042H.grib2 2026-04-20 08:50 1.0M
20260420T06Z_MSC_RDPS_WindGust_AGL-10m_RLatLon0.09_PT042H.grib2 2026-04-20 08:50 1.0M
20260420T06Z_MSC_RDPS_WindSpeed_AGL-10m_RLatLon0.09_PT042H.grib2 2026-04-20 08:50 844K
20260420T06Z_MSC_RDPS_WindSpeed_AGL-120m_RLatLon0.09_PT042H.grib2 2026-04-20 08:50 537K
20260420T06Z_MSC_RDPS_WindSpeed_AGL-40m_RLatLon0.09_PT042H.grib2 2026-04-20 08:50 543K
20260420T06Z_MSC_RDPS_WindSpeed_AGL-80m_RLatLon0.09_PT042H.grib2 2026-04-20 08:50 539K
20260420T06Z_MSC_RDPS_WindSpeed_IsbL-0001_RLatLon0.09_PT042H.grib2 2026-04-20 08:50 242K
20260420T06Z_MSC_RDPS_WindSpeed_IsbL-0005_RLatLon0.09_PT042H.grib2 2026-04-20 08:50 296K
20260420T06Z_MSC_RDPS_WindSpeed_IsbL-0010_RLatLon0.09_PT042H.grib2 2026-04-20 08:50 313K
20260420T06Z_MSC_RDPS_WindSpeed_IsbL-0020_RLatLon0.09_PT042H.grib2 2026-04-20 08:50 333K
20260420T06Z_MSC_RDPS_WindSpeed_IsbL-0030_RLatLon0.09_PT042H.grib2 2026-04-20 08:50 333K
20260420T06Z_MSC_RDPS_WindSpeed_IsbL-0050_RLatLon0.09_PT042H.grib2 2026-04-20 08:50 480K
20260420T06Z_MSC_RDPS_WindSpeed_IsbL-0100_RLatLon0.09_PT042H.grib2 2026-04-20 08:50 496K
20260420T06Z_MSC_RDPS_WindSpeed_IsbL-0150_RLatLon0.09_PT042H.grib2 2026-04-20 08:50 389K
20260420T06Z_MSC_RDPS_WindSpeed_IsbL-0175_RLatLon0.09_PT042H.grib2 2026-04-20 08:50 413K
20260420T06Z_MSC_RDPS_WindSpeed_IsbL-0200_RLatLon0.09_PT042H.grib2 2026-04-20 08:50 430K
20260420T06Z_MSC_RDPS_WindSpeed_IsbL-0225_RLatLon0.09_PT042H.grib2 2026-04-20 08:50 436K
20260420T06Z_MSC_RDPS_WindSpeed_IsbL-0250_RLatLon0.09_PT042H.grib2 2026-04-20 08:50 454K
20260420T06Z_MSC_RDPS_WindSpeed_IsbL-0275_RLatLon0.09_PT042H.grib2 2026-04-20 08:50 468K
20260420T06Z_MSC_RDPS_WindSpeed_IsbL-0300_RLatLon0.09_PT042H.grib2 2026-04-20 08:50 462K
20260420T06Z_MSC_RDPS_WindSpeed_IsbL-0350_RLatLon0.09_PT042H.grib2 2026-04-20 08:50 471K
20260420T06Z_MSC_RDPS_WindSpeed_IsbL-0400_RLatLon0.09_PT042H.grib2 2026-04-20 08:50 475K
20260420T06Z_MSC_RDPS_WindSpeed_IsbL-0450_RLatLon0.09_PT042H.grib2 2026-04-20 08:50 462K
20260420T06Z_MSC_RDPS_WindSpeed_IsbL-0500_RLatLon0.09_PT042H.grib2 2026-04-20 08:50 470K
20260420T06Z_MSC_RDPS_WindSpeed_IsbL-0550_RLatLon0.09_PT042H.grib2 2026-04-20 08:50 594K
20260420T06Z_MSC_RDPS_WindSpeed_IsbL-0600_RLatLon0.09_PT042H.grib2 2026-04-20 08:50 605K
20260420T06Z_MSC_RDPS_WindSpeed_IsbL-0650_RLatLon0.09_PT042H.grib2 2026-04-20 08:50 621K
20260420T06Z_MSC_RDPS_WindSpeed_IsbL-0700_RLatLon0.09_PT042H.grib2 2026-04-20 08:50 685K
20260420T06Z_MSC_RDPS_WindSpeed_IsbL-0750_RLatLon0.09_PT042H.grib2 2026-04-20 08:50 714K
20260420T06Z_MSC_RDPS_WindSpeed_IsbL-0800_RLatLon0.09_PT042H.grib2 2026-04-20 08:50 763K
20260420T06Z_MSC_RDPS_WindSpeed_IsbL-0850_RLatLon0.09_PT042H.grib2 2026-04-20 08:50 822K
20260420T06Z_MSC_RDPS_WindSpeed_IsbL-0875_RLatLon0.09_PT042H.grib2 2026-04-20 08:50 841K
20260420T06Z_MSC_RDPS_WindSpeed_IsbL-0900_RLatLon0.09_PT042H.grib2 2026-04-20 08:50 854K
20260420T06Z_MSC_RDPS_WindSpeed_IsbL-0925_RLatLon0.09_PT042H.grib2 2026-04-20 08:50 863K
20260420T06Z_MSC_RDPS_WindSpeed_IsbL-0950_RLatLon0.09_PT042H.grib2 2026-04-20 08:50 864K
20260420T06Z_MSC_RDPS_WindSpeed_IsbL-0970_RLatLon0.09_PT042H.grib2 2026-04-20 08:50 865K
20260420T06Z_MSC_RDPS_WindSpeed_IsbL-0985_RLatLon0.09_PT042H.grib2 2026-04-20 08:50 858K
20260420T06Z_MSC_RDPS_WindSpeed_IsbL-1000_RLatLon0.09_PT042H.grib2 2026-04-20 08:50 855K
20260420T06Z_MSC_RDPS_WindSpeed_IsbL-1015_RLatLon0.09_PT042H.grib2 2026-04-20 08:50 847K
20260420T06Z_MSC_RDPS_WindU_AGL-10m_RLatLon0.09_PT042H.grib2 2026-04-20 08:50 434K
20260420T06Z_MSC_RDPS_WindU_AGL-120m_RLatLon0.09_PT042H.grib2 2026-04-20 08:50 418K
20260420T06Z_MSC_RDPS_WindU_AGL-40m_RLatLon0.09_PT042H.grib2 2026-04-20 08:50 538K
20260420T06Z_MSC_RDPS_WindU_AGL-80m_RLatLon0.09_PT042H.grib2 2026-04-20 08:50 420K
20260420T06Z_MSC_RDPS_WindU_IsbL-0001_RLatLon0.09_PT042H.grib2 2026-04-20 08:50 287K
20260420T06Z_MSC_RDPS_WindU_IsbL-0005_RLatLon0.09_PT042H.grib2 2026-04-20 08:50 304K
20260420T06Z_MSC_RDPS_WindU_IsbL-0010_RLatLon0.09_PT042H.grib2 2026-04-20 08:50 317K
20260420T06Z_MSC_RDPS_WindU_IsbL-0020_RLatLon0.09_PT042H.grib2 2026-04-20 08:50 364K
20260420T06Z_MSC_RDPS_WindU_IsbL-0030_RLatLon0.09_PT042H.grib2 2026-04-20 08:50 364K
20260420T06Z_MSC_RDPS_WindU_IsbL-0050_RLatLon0.09_PT042H.grib2 2026-04-20 08:50 367K
20260420T06Z_MSC_RDPS_WindU_IsbL-0100_RLatLon0.09_PT042H.grib2 2026-04-20 08:50 452K
20260420T06Z_MSC_RDPS_WindU_IsbL-0150_RLatLon0.09_PT042H.grib2 2026-04-20 08:50 383K
20260420T06Z_MSC_RDPS_WindU_IsbL-0175_RLatLon0.09_PT042H.grib2 2026-04-20 08:50 429K
20260420T06Z_MSC_RDPS_WindU_IsbL-0200_RLatLon0.09_PT042H.grib2 2026-04-20 08:50 445K
20260420T06Z_MSC_RDPS_WindU_IsbL-0225_RLatLon0.09_PT042H.grib2 2026-04-20 08:50 448K
20260420T06Z_MSC_RDPS_WindU_IsbL-0250_RLatLon0.09_PT042H.grib2 2026-04-20 08:50 445K
20260420T06Z_MSC_RDPS_WindU_IsbL-0275_RLatLon0.09_PT042H.grib2 2026-04-20 08:50 356K
20260420T06Z_MSC_RDPS_WindU_IsbL-0300_RLatLon0.09_PT042H.grib2 2026-04-20 08:50 351K
20260420T06Z_MSC_RDPS_WindU_IsbL-0350_RLatLon0.09_PT042H.grib2 2026-04-20 08:50 358K
20260420T06Z_MSC_RDPS_WindU_IsbL-0400_RLatLon0.09_PT042H.grib2 2026-04-20 08:50 362K
20260420T06Z_MSC_RDPS_WindU_IsbL-0450_RLatLon0.09_PT042H.grib2 2026-04-20 08:50 468K
20260420T06Z_MSC_RDPS_WindU_IsbL-0500_RLatLon0.09_PT042H.grib2 2026-04-20 08:50 474K
20260420T06Z_MSC_RDPS_WindU_IsbL-0550_RLatLon0.09_PT042H.grib2 2026-04-20 08:50 480K
20260420T06Z_MSC_RDPS_WindU_IsbL-0600_RLatLon0.09_PT042H.grib2 2026-04-20 08:50 490K
20260420T06Z_MSC_RDPS_WindU_IsbL-0650_RLatLon0.09_PT042H.grib2 2026-04-20 08:50 504K
20260420T06Z_MSC_RDPS_WindU_IsbL-0700_RLatLon0.09_PT042H.grib2 2026-04-20 08:50 521K
20260420T06Z_MSC_RDPS_WindU_IsbL-0750_RLatLon0.09_PT042H.grib2 2026-04-20 08:50 532K
20260420T06Z_MSC_RDPS_WindU_IsbL-0800_RLatLon0.09_PT042H.grib2 2026-04-20 08:50 575K
20260420T06Z_MSC_RDPS_WindU_IsbL-0850_RLatLon0.09_PT042H.grib2 2026-04-20 08:50 626K
20260420T06Z_MSC_RDPS_WindU_IsbL-0875_RLatLon0.09_PT042H.grib2 2026-04-20 08:50 651K
20260420T06Z_MSC_RDPS_WindU_IsbL-0900_RLatLon0.09_PT042H.grib2 2026-04-20 08:50 659K
20260420T06Z_MSC_RDPS_WindU_IsbL-0925_RLatLon0.09_PT042H.grib2 2026-04-20 08:50 658K
20260420T06Z_MSC_RDPS_WindU_IsbL-0950_RLatLon0.09_PT042H.grib2 2026-04-20 08:50 657K
20260420T06Z_MSC_RDPS_WindU_IsbL-0970_RLatLon0.09_PT042H.grib2 2026-04-20 08:50 655K
20260420T06Z_MSC_RDPS_WindU_IsbL-0985_RLatLon0.09_PT042H.grib2 2026-04-20 08:50 653K
20260420T06Z_MSC_RDPS_WindU_IsbL-1000_RLatLon0.09_PT042H.grib2 2026-04-20 08:50 789K
20260420T06Z_MSC_RDPS_WindU_IsbL-1015_RLatLon0.09_PT042H.grib2 2026-04-20 08:50 784K
20260420T06Z_MSC_RDPS_WindV_AGL-10m_RLatLon0.09_PT042H.grib2 2026-04-20 08:50 436K
20260420T06Z_MSC_RDPS_WindV_AGL-120m_RLatLon0.09_PT042H.grib2 2026-04-20 08:50 417K
20260420T06Z_MSC_RDPS_WindV_AGL-40m_RLatLon0.09_PT042H.grib2 2026-04-20 08:50 539K
20260420T06Z_MSC_RDPS_WindV_AGL-80m_RLatLon0.09_PT042H.grib2 2026-04-20 08:50 419K
20260420T06Z_MSC_RDPS_WindV_IsbL-0001_RLatLon0.09_PT042H.grib2 2026-04-20 08:50 238K
20260420T06Z_MSC_RDPS_WindV_IsbL-0005_RLatLon0.09_PT042H.grib2 2026-04-20 08:50 330K
20260420T06Z_MSC_RDPS_WindV_IsbL-0010_RLatLon0.09_PT042H.grib2 2026-04-20 08:50 306K
20260420T06Z_MSC_RDPS_WindV_IsbL-0020_RLatLon0.09_PT042H.grib2 2026-04-20 08:50 328K
20260420T06Z_MSC_RDPS_WindV_IsbL-0030_RLatLon0.09_PT042H.grib2 2026-04-20 08:50 367K
20260420T06Z_MSC_RDPS_WindV_IsbL-0050_RLatLon0.09_PT042H.grib2 2026-04-20 08:50 366K
20260420T06Z_MSC_RDPS_WindV_IsbL-0100_RLatLon0.09_PT042H.grib2 2026-04-20 08:50 345K
20260420T06Z_MSC_RDPS_WindV_IsbL-0150_RLatLon0.09_PT042H.grib2 2026-04-20 08:50 400K
20260420T06Z_MSC_RDPS_WindV_IsbL-0175_RLatLon0.09_PT042H.grib2 2026-04-20 08:50 424K
20260420T06Z_MSC_RDPS_WindV_IsbL-0200_RLatLon0.09_PT042H.grib2 2026-04-20 08:50 342K
20260420T06Z_MSC_RDPS_WindV_IsbL-0225_RLatLon0.09_PT042H.grib2 2026-04-20 08:50 344K
20260420T06Z_MSC_RDPS_WindV_IsbL-0250_RLatLon0.09_PT042H.grib2 2026-04-20 08:50 343K
20260420T06Z_MSC_RDPS_WindV_IsbL-0275_RLatLon0.09_PT042H.grib2 2026-04-20 08:50 378K
20260420T06Z_MSC_RDPS_WindV_IsbL-0300_RLatLon0.09_PT042H.grib2 2026-04-20 08:50 373K
20260420T06Z_MSC_RDPS_WindV_IsbL-0350_RLatLon0.09_PT042H.grib2 2026-04-20 08:50 380K
20260420T06Z_MSC_RDPS_WindV_IsbL-0400_RLatLon0.09_PT042H.grib2 2026-04-20 08:50 361K
20260420T06Z_MSC_RDPS_WindV_IsbL-0450_RLatLon0.09_PT042H.grib2 2026-04-20 08:50 365K
20260420T06Z_MSC_RDPS_WindV_IsbL-0500_RLatLon0.09_PT042H.grib2 2026-04-20 08:50 475K
20260420T06Z_MSC_RDPS_WindV_IsbL-0550_RLatLon0.09_PT042H.grib2 2026-04-20 08:50 480K
20260420T06Z_MSC_RDPS_WindV_IsbL-0600_RLatLon0.09_PT042H.grib2 2026-04-20 08:50 489K
20260420T06Z_MSC_RDPS_WindV_IsbL-0650_RLatLon0.09_PT042H.grib2 2026-04-20 08:50 502K
20260420T06Z_MSC_RDPS_WindV_IsbL-0700_RLatLon0.09_PT042H.grib2 2026-04-20 08:50 506K
20260420T06Z_MSC_RDPS_WindV_IsbL-0750_RLatLon0.09_PT042H.grib2 2026-04-20 08:50 531K
20260420T06Z_MSC_RDPS_WindV_IsbL-0800_RLatLon0.09_PT042H.grib2 2026-04-20 08:50 572K
20260420T06Z_MSC_RDPS_WindV_IsbL-0850_RLatLon0.09_PT042H.grib2 2026-04-20 08:50 623K
20260420T06Z_MSC_RDPS_WindV_IsbL-0875_RLatLon0.09_PT042H.grib2 2026-04-20 08:50 640K
20260420T06Z_MSC_RDPS_WindV_IsbL-0900_RLatLon0.09_PT042H.grib2 2026-04-20 08:50 651K
20260420T06Z_MSC_RDPS_WindV_IsbL-0925_RLatLon0.09_PT042H.grib2 2026-04-20 08:50 657K
20260420T06Z_MSC_RDPS_WindV_IsbL-0950_RLatLon0.09_PT042H.grib2 2026-04-20 08:50 656K
20260420T06Z_MSC_RDPS_WindV_IsbL-0970_RLatLon0.09_PT042H.grib2 2026-04-20 08:50 656K
20260420T06Z_MSC_RDPS_WindV_IsbL-0985_RLatLon0.09_PT042H.grib2 2026-04-20 08:50 655K
20260420T06Z_MSC_RDPS_WindV_IsbL-1000_RLatLon0.09_PT042H.grib2 2026-04-20 08:50 791K
20260420T06Z_MSC_RDPS_WindV_IsbL-1015_RLatLon0.09_PT042H.grib2 2026-04-20 08:50 786K